PBD187 UUWW-URML

Flight info

Callsign PBD187
Flight time N/A
Altitude 35000
Route N0450F350 TOGMO M56 ABAGI B105 NIMTA/K0851F360 B105 NATIT DCT MOLED N50 LIDUS G242 ZG DCT ITAKA DCT RIRAN
Aircraft B738/M-VGDW/C

Departure

Time 2026-05-07 15:11
Airport Vnukovo International Airport (UUWW)

Arrival

Time N/A
Airport Makhachkala Uytash International Airport (URML)
Time Latitude Longitude Altitude Speed Heading
2026-05-07 14:29 55.60140 37.27759 685 ft 0 kts 64°
2026-05-07 15:06 55.60142 37.27768 687 ft 2 kts 64°
2026-05-07 15:06 55.60155 37.27818 693 ft 7 kts 68°
2026-05-07 15:07 55.60123 37.27924 685 ft 14 kts 134°
2026-05-07 15:07 55.60074 37.28117 694 ft 21 kts 99°
2026-05-07 15:07 55.60090 37.28396 692 ft 24 kts 74°
2026-05-07 15:07 55.60193 37.28617 692 ft 16 kts 47°
2026-05-07 15:08 55.60174 37.28772 688 ft 15 kts 131°
2026-05-07 15:08 55.60092 37.28875 692 ft 14 kts 165°
2026-05-07 15:08 55.59997 37.28918 687 ft 14 kts 167°
2026-05-07 15:08 55.59925 37.28949 690 ft 0 kts 165°
2026-05-07 15:09 55.59920 37.28952 690 ft 2 kts 165°
2026-05-07 15:09 55.59883 37.28969 692 ft 9 kts 165°
2026-05-07 15:10 55.59802 37.28992 691 ft 14 kts 198°
2026-05-07 15:10 55.59784 37.28941 688 ft 14 kts 248°
2026-05-07 15:10 55.59659 37.28387 692 ft 83 kts 248°
2026-05-07 15:10 55.59363 37.27076 687 ft 144 kts 248°
2026-05-07 15:11 55.58937 37.25219 983 ft 170 kts 248°
2026-05-07 15:11 55.58499 37.23292 1863 ft 168 kts 243°
2026-05-07 15:11 55.57703 37.21774 2707 ft 167 kts 221°
2026-05-07 15:11 55.56926 37.20223 3386 ft 170 kts 240°
2026-05-07 15:12 55.56269 37.18440 4114 ft 175 kts 238°
2026-05-07 15:12 55.55582 37.16670 4890 ft 180 kts 238°
2026-05-07 15:12 55.54962 37.14584 5117 ft 205 kts 256°
2026-05-07 15:12 55.54781 37.11984 5499 ft 219 kts 268°
2026-05-07 15:13 55.54775 37.09264 6149 ft 222 kts 269°
2026-05-07 15:13 55.54957 37.06538 6723 ft 227 kts 288°
2026-05-07 15:13 55.55841 37.04204 6999 ft 240 kts 314°
2026-05-07 15:13 55.57358 37.02744 6993 ft 256 kts 342°
2026-05-07 15:14 55.59150 37.02442 7315 ft 262 kts 354°
2026-05-07 15:14 55.60999 37.02510 7968 ft 272 kts
2026-05-07 15:14 55.62764 37.03740 8629 ft 285 kts 35°
2026-05-07 15:14 55.64055 37.06426 9192 ft 300 kts 64°
2026-05-07 15:15 55.64576 37.10062 9655 ft 310 kts 92°
2026-05-07 15:15 55.64156 37.13784 10211 ft 312 kts 119°
2026-05-07 15:15 55.62875 37.16951 10413 ft 326 kts 140°
2026-05-07 15:15 55.61164 37.19765 10578 ft 347 kts 143°
2026-05-07 15:16 55.59285 37.22635 10743 ft 367 kts 143°
2026-05-07 15:16 55.57286 37.25638 10946 ft 385 kts 143°
2026-05-07 15:16 55.55224 37.28748 11423 ft 393 kts 143°
2026-05-07 15:16 55.53146 37.31912 12114 ft 395 kts 143°
2026-05-07 15:17 55.51064 37.35104 12767 ft 398 kts 143°
2026-05-07 15:17 55.48964 37.38335 13361 ft 403 kts 143°
2026-05-07 15:17 55.46843 37.41606 13940 ft 407 kts 143°
2026-05-07 15:17 55.44708 37.44899 14505 ft 410 kts 142°
2026-05-07 15:18 55.42549 37.48227 15060 ft 414 kts 142°
2026-05-07 15:18 55.40939 37.50707 15477 ft 416 kts 142°
2026-05-07 15:18 55.39491 37.52933 15837 ft 419 kts 142°
2026-05-07 15:18 55.37285 37.56323 16363 ft 422 kts 142°
2026-05-07 15:19 55.35063 37.59731 16881 ft 426 kts 142°
2026-05-07 15:19 55.32822 37.63164 17400 ft 429 kts 142°
2026-05-07 15:19 55.30562 37.66619 17903 ft 433 kts 142°
2026-05-07 15:19 55.28280 37.70102 18364 ft 437 kts 142°
2026-05-07 15:20 55.25193 37.74805 18946 ft 441 kts 142°
2026-05-07 15:20 55.23657 37.77141 19248 ft 442 kts 142°
2026-05-07 15:20 55.21325 37.80683 19692 ft 445 kts 142°
2026-05-07 15:20 55.18978 37.84244 20127 ft 448 kts 142°
2026-05-07 15:21 55.14229 37.91427 20960 ft 454 kts 142°
2026-05-07 15:21 55.11968 37.94839 21343 ft 456 kts 142°
2026-05-07 15:21 55.09558 37.98472 21741 ft 459 kts 142°
2026-05-07 15:22 55.07130 38.02123 22117 ft 462 kts 141°
2026-05-07 15:22 55.04693 38.05784 22515 ft 464 kts 141°
2026-05-07 15:22 55.02236 38.09467 22878 ft 467 kts 141°
2026-05-07 15:22 54.99768 38.13160 23238 ft 469 kts 141°
2026-05-07 15:23 54.97280 38.16879 23578 ft 472 kts 141°
2026-05-07 15:23 54.94784 38.20601 23882 ft 474 kts 141°
2026-05-07 15:23 54.92305 38.24293 24178 ft 476 kts 141°
2026-05-07 15:23 54.89785 38.28039 24479 ft 478 kts 141°
2026-05-07 15:24 54.87251 38.31800 24762 ft 480 kts 141°
2026-05-07 15:24 54.84708 38.35568 25050 ft 482 kts 141°
2026-05-07 15:24 54.82144 38.39360 25334 ft 484 kts 141°
2026-05-07 15:24 54.79579 38.43148 25605 ft 486 kts 141°
2026-05-07 15:25 54.76996 38.46954 25865 ft 488 kts 141°
2026-05-07 15:25 54.74408 38.50762 26126 ft 490 kts 141°
2026-05-07 15:25 54.71852 38.54516 26468 ft 490 kts 141°
2026-05-07 15:25 54.69212 38.58389 26902 ft 488 kts 141°
2026-05-07 15:26 54.66675 38.62262 27322 ft 487 kts 135°
2026-05-07 15:26 54.64509 38.66750 27666 ft 488 kts 124°
2026-05-07 15:26 54.62782 38.71785 28043 ft 487 kts 116°
2026-05-07 15:26 54.61496 38.77177 28455 ft 485 kts 110°
2026-05-07 15:27 54.60332 38.82633 28871 ft 484 kts 109°
2026-05-07 15:27 54.59179 38.88066 29272 ft 483 kts 109°
2026-05-07 15:27 54.58017 38.93499 29650 ft 482 kts 110°
2026-05-07 15:27 54.56847 38.98895 30027 ft 481 kts 110°
2026-05-07 15:28 54.55665 39.04283 30367 ft 480 kts 110°
2026-05-07 15:28 54.54477 39.09649 30681 ft 479 kts 110°
2026-05-07 15:28 54.53284 39.15004 30995 ft 478 kts 110°
2026-05-07 15:28 54.52089 39.20340 31298 ft 477 kts 111°
2026-05-07 15:29 54.50909 39.25596 31606 ft 476 kts 111°
2026-05-07 15:29 54.49700 39.30972 31926 ft 475 kts 111°
2026-05-07 15:29 54.48521 39.36201 32212 ft 475 kts 111°
2026-05-07 15:29 54.47327 39.41483 32507 ft 474 kts 111°
2026-05-07 15:30 54.46133 39.46755 32799 ft 473 kts 111°
2026-05-07 15:30 54.44936 39.52031 33089 ft 473 kts 111°
2026-05-07 15:30 54.43740 39.57286 33376 ft 472 kts 111°
2026-05-07 15:30 54.42545 39.62525 33660 ft 471 kts 111°
2026-05-07 15:31 54.41349 39.67757 33923 ft 471 kts 111°
2026-05-07 15:31 54.40147 39.72998 34153 ft 470 kts 111°
2026-05-07 15:31 54.38948 39.78217 34357 ft 470 kts 111°
2026-05-07 15:31 54.37746 39.83434 34561 ft 470 kts 111°
2026-05-07 15:32 54.36544 39.88639 34759 ft 470 kts 111°
2026-05-07 15:32 54.35338 39.93848 34901 ft 471 kts 111°
2026-05-07 15:32 54.32908 40.04305 34900 ft 471 kts 111°
2026-05-07 15:33 54.30484 40.14686 34898 ft 468 kts 112°
2026-05-07 15:33 54.28064 40.25000 34901 ft 465 kts 112°
2026-05-07 15:34 54.25648 40.35245 34906 ft 463 kts 112°
2026-05-07 15:34 54.23231 40.45451 34904 ft 463 kts 112°
2026-05-07 15:35 54.20804 40.55650 34912 ft 464 kts 112°
2026-05-07 15:35 54.18358 40.65876 34913 ft 466 kts 112°
2026-05-07 15:36 54.15897 40.76121 34911 ft 467 kts 112°
2026-05-07 15:36 54.13418 40.86388 34912 ft 469 kts 112°
2026-05-07 15:37 54.10924 40.96673 34916 ft 470 kts 112°
2026-05-07 15:37 54.08410 41.06990 34920 ft 474 kts 112°
2026-05-07 15:38 54.05859 41.17406 34916 ft 478 kts 112°
2026-05-07 15:38 54.03281 41.27886 34916 ft 481 kts 113°
2026-05-07 15:39 54.00708 41.38295 34900 ft 479 kts 113°
2026-05-07 15:39 53.98136 41.48651 34905 ft 473 kts 113°
2026-05-07 15:40 53.95574 41.58919 34916 ft 471 kts 113°
2026-05-07 15:40 53.93009 41.69155 34911 ft 471 kts 113°
2026-05-07 15:41 53.90436 41.79369 34915 ft 471 kts 113°
2026-05-07 15:41 53.87853 41.89580 34916 ft 471 kts 113°
2026-05-07 15:42 53.85261 41.99780 34917 ft 472 kts 113°
2026-05-07 15:42 53.82657 42.09981 34915 ft 472 kts 113°
2026-05-07 15:43 53.80042 42.20178 34915 ft 472 kts 114°
2026-05-07 15:43 53.77419 42.30359 34918 ft 472 kts 114°
2026-05-07 15:44 53.74785 42.40538 34916 ft 472 kts 114°
2026-05-07 15:44 53.72161 42.50637 34918 ft 472 kts 114°
2026-05-07 15:45 53.69494 42.60755 34910 ft 472 kts 118°
2026-05-07 15:45 53.67671 42.65358 34913 ft 473 kts 132°
2026-05-07 15:45 53.65275 42.69156 34925 ft 474 kts 144°
2026-05-07 15:46 53.59430 42.74223 34926 ft 475 kts 157°
2026-05-07 15:46 53.56390 42.76427 34920 ft 476 kts 157°
2026-05-07 15:47 53.50320 42.80839 34911 ft 475 kts 157°
2026-05-07 15:47 53.44284 42.85305 34916 ft 474 kts 156°
2026-05-07 15:48 53.38265 42.89799 34922 ft 474 kts 156°
2026-05-07 15:48 53.32241 42.94295 34923 ft 474 kts 156°
2026-05-07 15:49 53.26211 42.98780 34923 ft 474 kts 156°
2026-05-07 15:49 53.20176 43.03251 34924 ft 475 kts 156°
2026-05-07 15:50 53.14134 43.07713 34929 ft 475 kts 156°
2026-05-07 15:50 53.08128 43.12134 34923 ft 475 kts 156°
2026-05-07 15:51 53.02078 43.16574 34927 ft 475 kts 156°
2026-05-07 15:51 52.96020 43.21006 34929 ft 476 kts 156°
2026-05-07 15:52 52.89960 43.25426 34932 ft 476 kts 156°
2026-05-07 15:52 52.83896 43.29836 34933 ft 476 kts 156°
2026-05-07 15:53 52.77832 43.34232 34930 ft 476 kts 156°
2026-05-07 15:53 52.71761 43.38620 34930 ft 476 kts 156°
2026-05-07 15:54 52.65686 43.42997 34935 ft 476 kts 156°
2026-05-07 15:54 52.59607 43.47364 34937 ft 477 kts 156°
2026-05-07 15:55 52.53524 43.51720 34941 ft 477 kts 156°
2026-05-07 15:55 52.47438 43.56066 34945 ft 477 kts 156°
2026-05-07 15:56 52.41367 43.60387 35227 ft 473 kts 156°
2026-05-07 15:56 52.38361 43.62523 35607 ft 467 kts 156°
2026-05-07 15:56 52.35441 43.64594 35972 ft 463 kts 157°
2026-05-07 15:56 52.32492 43.66683 36285 ft 459 kts 157°
2026-05-07 15:57 52.29520 43.68784 36507 ft 459 kts 157°
2026-05-07 15:57 52.26631 43.70824 36644 ft 459 kts 157°
2026-05-07 15:57 52.23689 43.72898 36794 ft 460 kts 157°
2026-05-07 15:57 52.20762 43.74959 36995 ft 459 kts 157°
2026-05-07 15:58 52.17817 43.77030 36943 ft 462 kts 157°
2026-05-07 15:58 52.11875 43.81198 36958 ft 467 kts 157°
2026-05-07 15:59 52.05879 43.85392 36956 ft 471 kts 157°
2026-05-07 15:59 51.99833 43.89609 36963 ft 474 kts 157°
2026-05-07 16:00 51.93757 43.93834 36960 ft 476 kts 157°
2026-05-07 16:00 51.87662 43.98060 36953 ft 477 kts 157°
2026-05-07 16:01 51.81570 44.02271 36955 ft 476 kts 157°
2026-05-07 16:01 51.75490 44.06462 36957 ft 475 kts 157°
2026-05-07 16:02 51.69447 44.10614 36958 ft 475 kts 157°
2026-05-07 16:02 51.63359 44.14787 36966 ft 476 kts 157°
2026-05-07 16:03 51.57254 44.18958 36965 ft 477 kts 157°
2026-05-07 16:03 51.51150 44.23116 36959 ft 476 kts 157°
2026-05-07 16:04 51.45064 44.27250 36965 ft 475 kts 157°
2026-05-07 16:04 51.38973 44.31375 36960 ft 475 kts 157°
2026-05-07 16:05 51.32878 44.35492 36967 ft 475 kts 157°
2026-05-07 16:05 51.26796 44.39588 36965 ft 475 kts 157°
2026-05-07 16:06 51.20714 44.43674 36961 ft 475 kts 157°
2026-05-07 16:06 51.15641 44.47043 36958 ft 476 kts 159°
2026-05-07 16:07 51.09323 44.50197 36963 ft 476 kts 164°
2026-05-07 16:07 51.01906 44.53471 36962 ft 476 kts 164°
2026-05-07 16:08 50.96560 44.55863 36963 ft 477 kts 163°
2026-05-07 16:08 50.90182 44.58773 36959 ft 477 kts 163°
2026-05-07 16:09 50.83806 44.61703 36959 ft 477 kts 163°
2026-05-07 16:09 50.77421 44.64630 36957 ft 477 kts 163°
2026-05-07 16:10 50.70931 44.66321 36976 ft 477 kts 177°
2026-05-07 16:10 50.64294 44.66677 36962 ft 477 kts 178°
2026-05-07 16:11 50.57651 44.67007 36951 ft 478 kts 178°
2026-05-07 16:11 50.51009 44.67414 36952 ft 478 kts 177°
2026-05-07 16:12 50.44371 44.67862 36953 ft 477 kts 177°
2026-05-07 16:12 50.37758 44.68316 36944 ft 473 kts 177°
2026-05-07 16:13 50.31222 44.68760 36948 ft 469 kts 177°
2026-05-07 16:13 50.24710 44.69200 36951 ft 467 kts 177°
2026-05-07 16:14 50.18215 44.69636 36951 ft 466 kts 177°
2026-05-07 16:14 50.11727 44.70071 36955 ft 467 kts 177°
2026-05-07 16:15 50.05235 44.70505 36952 ft 467 kts 177°
2026-05-07 16:15 49.98741 44.70937 36952 ft 468 kts 177°
2026-05-07 16:16 49.92227 44.71370 36957 ft 469 kts 177°
2026-05-07 16:16 49.85707 44.71803 36951 ft 469 kts 177°
2026-05-07 16:17 49.79181 44.72234 36945 ft 470 kts 177°
2026-05-07 16:17 49.75892 44.72451 36688 ft 475 kts 177°
2026-05-07 16:17 49.72589 44.72669 36441 ft 475 kts 177°
2026-05-07 16:17 49.69296 44.72885 36180 ft 472 kts 177°
2026-05-07 16:18 49.66023 44.73100 35999 ft 470 kts 177°
2026-05-07 16:18 49.59480 44.73529 35957 ft 472 kts 177°
2026-05-07 16:19 49.52913 44.73959 35951 ft 472 kts 177°
2026-05-07 16:19 49.46358 44.74386 35951 ft 472 kts 177°
2026-05-07 16:20 49.39834 44.74810 35953 ft 472 kts 177°
2026-05-07 16:20 49.33270 44.75236 35949 ft 472 kts 177°
2026-05-07 16:21 49.26715 44.75660 35954 ft 472 kts 177°
2026-05-07 16:21 49.20172 44.76083 35954 ft 472 kts 177°
2026-05-07 16:22 49.13605 44.76505 35959 ft 472 kts 177°
2026-05-07 16:22 49.07235 44.76914 35956 ft 472 kts 177°
2026-05-07 16:23 49.00674 44.77334 35959 ft 472 kts 177°
2026-05-07 16:23 48.94117 44.77753 35960 ft 472 kts 177°
2026-05-07 16:24 48.87566 44.78263 35953 ft 471 kts 171°
2026-05-07 16:24 48.84385 44.79384 35970 ft 469 kts 160°
2026-05-07 16:24 48.81400 44.81334 35962 ft 468 kts 150°
2026-05-07 16:25 48.76151 44.87115 35973 ft 467 kts 140°
2026-05-07 16:25 48.71089 44.93281 35956 ft 467 kts 140°
2026-05-07 16:26 48.65993 44.99379 35956 ft 467 kts 141°
2026-05-07 16:26 48.60863 45.05428 35956 ft 467 kts 141°
2026-05-07 16:27 48.55736 45.11443 35956 ft 467 kts 141°
2026-05-07 16:27 48.50602 45.17456 35952 ft 467 kts 141°
2026-05-07 16:28 48.45467 45.23459 35956 ft 467 kts 141°
2026-05-07 16:28 48.40304 45.29385 35952 ft 467 kts 145°
2026-05-07 16:29 48.34564 45.33969 35958 ft 468 kts 153°
2026-05-07 16:29 48.28723 45.38135 35957 ft 468 kts 153°
2026-05-07 16:30 48.22817 45.42380 35955 ft 468 kts 153°
2026-05-07 16:30 48.16965 45.46640 35956 ft 467 kts 153°
2026-05-07 16:31 48.11158 45.50879 35956 ft 467 kts 153°
2026-05-07 16:31 48.05311 45.55138 35956 ft 467 kts 153°
2026-05-07 16:32 47.99466 45.59382 35960 ft 467 kts 153°
2026-05-07 16:32 47.93614 45.63620 35958 ft 467 kts 153°
2026-05-07 16:33 47.87764 45.67844 35959 ft 467 kts 153°
2026-05-07 16:33 47.81914 45.72059 35962 ft 467 kts 153°
2026-05-07 16:34 47.76051 45.76271 35959 ft 468 kts 153°
2026-05-07 16:34 47.70191 45.80472 35958 ft 468 kts 153°
2026-05-07 16:35 47.64330 45.84662 35962 ft 468 kts 153°
2026-05-07 16:35 47.58462 45.88848 35962 ft 468 kts 153°
2026-05-07 16:36 47.52591 45.93025 35963 ft 468 kts 153°
2026-05-07 16:36 47.46721 45.97192 35962 ft 468 kts 153°
2026-05-07 16:37 47.40850 46.01349 35960 ft 468 kts 153°
2026-05-07 16:37 47.34976 46.05499 35953 ft 468 kts 153°
2026-05-07 16:38 47.29107 46.09642 35959 ft 468 kts 153°
2026-05-07 16:38 47.23227 46.13784 35895 ft 468 kts 154°
2026-05-07 16:39 47.17394 46.17883 35954 ft 468 kts 154°
2026-05-07 16:39 47.11508 46.22010 35964 ft 469 kts 154°
2026-05-07 16:40 47.05883 46.26796 35962 ft 468 kts 139°
2026-05-07 16:40 47.01541 46.33827 35956 ft 466 kts 122°
2026-05-07 16:41 46.98101 46.41882 35959 ft 466 kts 121°
2026-05-07 16:41 46.94690 46.49917 35942 ft 462 kts 121°
2026-05-07 16:42 46.91272 46.57812 35949 ft 458 kts 122°
2026-05-07 16:42 46.87851 46.65631 35951 ft 456 kts 122°
2026-05-07 16:43 46.84429 46.73420 35948 ft 455 kts 122°
2026-05-07 16:43 46.81008 46.81192 35951 ft 455 kts 122°
2026-05-07 16:44 46.77579 46.88962 35947 ft 457 kts 122°
2026-05-07 16:44 46.74128 46.96764 35944 ft 458 kts 122°
2026-05-07 16:45 46.70660 47.04583 35945 ft 460 kts 122°
2026-05-07 16:45 46.67193 47.12437 35941 ft 462 kts 122°
2026-05-07 16:46 46.63751 47.20347 35944 ft 463 kts 122°
2026-05-07 16:46 46.60306 47.28255 35935 ft 463 kts 122°
2026-05-07 16:47 46.57431 47.34824 35930 ft 463 kts 122°
2026-05-07 16:47 46.53382 47.44038 35935 ft 462 kts 122°
2026-05-07 16:48 46.50497 47.50583 35932 ft 462 kts 122°
2026-05-07 16:48 46.46469 47.59698 35930 ft 461 kts 122°
2026-05-07 16:49 46.43567 47.66247 35924 ft 462 kts 122°
2026-05-07 16:49 46.41255 47.71453 35933 ft 465 kts 122°
2026-05-07 16:50 46.37140 47.80695 35921 ft 469 kts 122°